Abbotsford, British Columbia

9:01 PM PDT on May 28, 2017 (GMT -0700)
Abbotsford

Weather History for CYXX - December, 2012

Change the Weather History Date:

Sunday, December 23, 2012

  Actual Average Record
Temperature  
Mean Temperature 36 °F -  
Max Temperature 39 °F 42 °F 51 °F (2005)
Min Temperature 32 °F 30 °F 12 °F (2008)
Degree Days  
Heating Degree Days 30    
Moisture  
Dew Point 34 °F    
Average Humidity 93    
Maximum Humidity 100    
Minimum Humidity 84    
Precipitation  
Precipitation 0.02 in 0.27 in - ()
Sea Level Pressure  
Sea Level Pressure 29.73 in    
Wind  
Wind Speed 4 mph ()    
Max Wind Speed 7 mph    
Max Gust Speed -    
Visibility 12.2 miles    
Events Rain    
Averages and records for this station are not official NWS values.
T = Trace of Precipitation, MM = Missing Value Source: Averaged Metar Reports

Daily Weather History Graph

Daily Weather History Graph

Search for Another Location

Airport or City:

Trip Planner

Search our weather history database for the weather conditions in past years. The results will help you decide how hot, cold, wet, or windy it might be!

Date:

Astronomy

Dec. 23, 2012 Rise Set
Actual Time 8:02 AM PST 4:15 PM PST
Civil Twilight 7:24 AM PST 4:53 PM PST
Nautical Twilight 6:44 AM PST 5:33 PM PST
Astronomical Twilight 6:05 AM PST 6:12 PM PST
Moon 1:19 PM PST (12/23) 3:38 AM PST (12/23)
Length of Visible Light 9h 28m
Length of Day
8h 13m
Waxing Gibbous, 82% of the Moon is Illuminated
Dec 23
Waxing Gibbous
Dec 28
Full
Jan 4
Last Quarter
Jan 11
New
Jan 18
First Quarter

Hourly Weather History & Observations

Time (PST) Temp. Windchill Dew Point Humidity Pressure Visibility Wind Dir Wind Speed Gust Speed Precip Events Conditions
12:00 AM 35.6 °F 31.7 °F 33.8 °F 93% 29.73 in 10.0 mi NE 4.6 mph - N/A   Overcast
1:00 AM 33.8 °F 29.6 °F 33.8 °F 100% 29.75 in 10.0 mi North 4.6 mph - N/A   Overcast
2:00 AM 33.8 °F 30.8 °F 33.8 °F 100% 29.76 in 10.0 mi NE 3.5 mph - N/A   Mostly Cloudy
3:00 AM 33.8 °F - 33.8 °F 100% 29.76 in 10.0 mi Calm Calm - N/A   Overcast
4:00 AM 33 °F - 32 °F 96% 29.76 in 10 mi NE 5.8 mph - -   Mostly Cloudy
4:00 AM 33.8 °F 29.6 °F 32.0 °F 93% 29.76 in 10.0 mi NNE 4.6 mph - N/A   Mostly Cloudy
5:00 AM 33.8 °F 28.6 °F 33.8 °F 100% 29.75 in 10.0 mi NNE 5.8 mph - N/A   Overcast
6:00 AM 33.8 °F - 33.8 °F 100% 29.75 in 10.0 mi Calm Calm - N/A   Overcast
7:00 AM 33.8 °F 29.6 °F 33.8 °F 100% 29.75 in 10.0 mi North 4.6 mph - N/A   Overcast
8:00 AM 35.6 °F 31.7 °F 33.8 °F 93% 29.75 in 15.0 mi NNE 4.6 mph - N/A   Overcast
9:00 AM 35.6 °F 29.9 °F 33.8 °F 93% 29.75 in 20.0 mi NNE 6.9 mph - N/A   Overcast
10:00 AM 36 °F - 34 °F 91% 29.75 in 19 mi NNE 6.9 mph - -   Overcast
10:00 AM 35.6 °F 29.9 °F 33.8 °F 93% 29.75 in 20.0 mi NNE 6.9 mph - N/A   Overcast
11:00 AM 37.4 °F 32.1 °F 35.6 °F 93% 29.72 in 25.0 mi NNE 6.9 mph - N/A   Mostly Cloudy
12:00 PM 37.4 °F 33.8 °F 35.6 °F 93% 29.70 in 25.0 mi NNE 4.6 mph - N/A   Mostly Cloudy
1:00 PM 39.2 °F 35.9 °F 35.6 °F 87% 29.68 in 25.0 mi North 4.6 mph - N/A   Overcast
2:00 PM 39.2 °F 35.9 °F 35.6 °F 87% 29.67 in 25.0 mi North 4.6 mph - N/A   Overcast
3:00 PM 39.2 °F 34.2 °F 35.6 °F 87% 29.67 in 25.0 mi North 6.9 mph - N/A   Overcast
4:00 PM 38 °F - 35 °F 84% 29.68 in 19 mi North 3.5 mph - -   Overcast
4:00 PM 37.4 °F 33.8 °F 35.6 °F 93% 29.68 in 20.0 mi North 4.6 mph - N/A   Overcast
5:00 PM 37.4 °F - 33.8 °F 87% 29.69 in 15.0 mi East 2.3 mph - N/A Rain Light Rain
6:00 PM 37.4 °F - 35.6 °F 93% 29.70 in 10.0 mi Calm Calm - N/A Rain Light Rain
7:00 PM 35.6 °F - 35.6 °F 100% 29.71 in 10.0 mi Calm Calm - N/A Rain Light Rain
7:52 PM 35.6 °F 31.7 °F 33.8 °F 93% 29.73 in 10.0 mi East 4.6 mph - N/A Rain Light Rain
8:00 PM 35.6 °F 32.8 °F 33.8 °F 93% 29.73 in 10.0 mi East 3.5 mph - N/A Rain Light Rain
8:04 PM 35.6 °F 32.8 °F 33.8 °F 93% 29.73 in 10.0 mi East 3.5 mph - N/A Rain Light Rain
9:00 PM 35.6 °F 32.8 °F 32.0 °F 87% 29.75 in 10.0 mi East 3.5 mph - N/A Rain Light Rain
10:00 PM 35 °F - 34 °F 94% 29.77 in 10 mi Calm Calm - - Rain Light Rain
10:00 PM 35.6 °F - 33.8 °F 93% 29.77 in 10.0 mi Calm Calm - N/A Rain Light Rain
11:00 PM 33.8 °F - 32.0 °F 93% 29.80 in 8.0 mi Calm Calm - N/A Rain Light Rain